ARIANE 5 DEB (SYLDA), 29164

Orbit data source: Space-Track

ARIANE 5 DEB (SYLDA), 29164 is space debris in LEO originally from a launch on Sat, 27 May 2006 UTC launched from the French Guiana (FRGUI). Debris objects in space refer to the collection of defunct objects orbiting the Earth. Examples of debris include non-operational satellites, rocket bodies, and fragments generated from explosions, collisions, or faulty payload assembly.

Not visible in the next 10 days
Identifier
29164, 2006-020C
Orbit
LEO
Country
Flag of FRFR
Related business
Manufacturer
EADS/Bremen
Mission
Spacecraft
Bus & Motor
SYLDA 5, Unknown motor
Mass
440 kg wet, 440 kg dry
Launch date (UTC)
2006-05-27 (20 years ago)
Launch vehicle
Unknown
Launch site
French Guiana (FRGUI)
Object type
Payload
Rocket body
Debris
Shape & HBR
Cyl, 3.7 m
Radar Cross Section
28.451 m², Large (>1 m²)

Expand to show TLE details & history
Last TLE update: 1 day ago

TLE from 1 day ago
0 ARIANE 5 DEB (SYLDA)
1 29164U 06020C   26264.22830024  .00162161 -10155-4  30115-2 0  9997
2 29164   6.7952 294.5065 1963948 139.9275 236.3510 11.57495486414166
Epoch: 2026-09-21T05:28Z
TLE epoch observation values (Epoch: 2026-09-21T05:28:45.140Z)
Latitude
-0.00001°
Longitude
-147.7928°
Altitude
2,958.93 km
Speed
6.093 km/s
True Right ascension
19h 38m 01s
True Declination
0° 00' 00"
Sunlit
Object was in daylight at epoch
Visualization orbit readout
Latitude
Unknown
Longitude
Unknown
Altitude
Unknown
Speed
Unknown
Apparent Right ascension
Unknown
Apparent Declination
Unknown
Sunlit
N/A
Visualization observer readout
Local Sidereal Time
01:13:22
Azimuth
Unknown
Elevation
Unknown
Doppler factor
Unknown
Orbital elements
Apogee altitude
3,504.859 km
Perigee altitude
260.162 km
Semi-major axis
8,260.648 km
Eccentricity
0.19639
Inclination
6.7952°
RAAN
294.5065°
Arg. of periapsis
139.9275°
True anomaly
220.08483°
Mean anomaly
236.351°
Eccentric anomaly
227.99001°
Mean motion
2.89083 °/min
Orbital period
124.53 mins
BSTAR
0.0030115
Loading maneuver chart data...
Computing Atmospheric mass density...
Loading historical data...
Loading historical data...
Loading historical data...
Loading historical data...
Loading historical data...
Loading historical data...
Loading historical data...
Other satellites on launch #20 in the year 2006 (2006-05-27 UTC)

Documentation

Showing up to 5 results
|